EW5168 Weather Reports


Display with metric or nautical units.
time (UTC)temp
F
wind
direction
speed
MPH
gust
MPH
rain 1hr
in
rain 24hr
in
rain mn
in
humidity
%
barometer
mb
20260902024250 88 137 0.0 1.0 0.00 0.00 0.00 42 1013.6
20260902023750 88 137 0.0 1.0 0.00 0.00 0.00 42 1013.5
20260902023249 88 137 0.0 1.0 0.00 0.00 0.00 42 1013.4
20260902022748 89 137 0.0 1.0 0.00 0.00 0.00 42 1013.3
20260902022246 89 137 0.0 1.0 0.00 0.00 0.00 42 1013.2
20260902021747 89 137 0.0 1.0 0.00 0.00 0.00 42 1013.2
20260902021245 89 137 0.0 1.0 0.00 0.00 0.00 42 1013.0
20260902020745 89 137 0.0 0.0 0.00 0.00 0.00 42 1013.0
20260902020245 90 137 0.0 0.0 0.00 0.00 0.00 42 1012.9
20260902015742 90 137 0.0 1.0 0.00 0.00 0.00 42 1012.8
20260902015240 90 137 0.0 1.0 0.00 0.00 0.00 42 1012.8
20260902014740 91 137 0.0 1.0 0.00 0.00 0.00 41 1012.8
20260902014238 91 137 0.0 1.0 0.00 0.00 0.00 41 1012.8
20260902013738 91 137 0.0 0.0 0.00 0.00 0.00 41 1012.7
20260902013237 92 137 0.0 1.0 0.00 0.00 0.00 41 1012.7
20260902012734 92 137 0.0 1.0 0.00 0.00 0.00 41 1012.6
20260902012239 93 137 0.0 1.0 0.00 0.00 0.00 40 1012.6
20260902012234 92 137 0.0 1.0 0.00 0.00 0.00 40 1012.6
20260902011235 93 137 0.0 2.0 0.00 0.00 0.00 40 1012.6
20260902010736 94 82 1.0 2.0 0.00 0.00 0.00 39 1012.5
20260902010732 93 136 0.0 2.0 0.00 0.00 0.00 40 1012.5
20260902005731 94 82 1.0 3.0 0.00 0.00 0.00 39 1012.5
20260902005230 94 80 1.0 4.0 0.00 0.00 0.00 39 1012.4
20260902004730 94 101 1.0 4.0 0.00 0.00 0.00 39 1012.5
20260902004231 94 78 1.0 3.0 0.00 0.00 0.00 38 1012.5
20260902003731 94 78 1.0 4.0 0.00 0.00 0.00 38 1012.5
20260902003230 95 80 1.0 4.0 0.00 0.00 0.00 38 1012.5
20260902002730 95 92 1.0 4.0 0.00 0.00 0.00 38 1012.5
20260902002230 95 89 1.0 4.0 0.00 0.00 0.00 38 1012.5
20260902001730 95 142 1.0 4.0 0.00 0.00 0.00 38 1012.6
20260902001231 95 96 2.0 4.0 0.00 0.00 0.00 38 1012.5
20260902000734 95 90 2.0 6.0 0.00 0.00 0.00 37 1012.6
20260902000730 95 92 2.0 6.0 0.00 0.00 0.00 37 1012.6
20260901235729 96 82 2.0 8.0 0.00 0.00 0.00 37 1012.7
20260901235228 96 76 3.0 8.0 0.00 0.00 0.00 37 1012.6
20260901234729 96 101 2.0 7.0 0.00 0.00 0.00 37 1012.7
20260901234231 96 75 2.0 5.0 0.00 0.00 0.00 37 1012.7
20260901234227 96 72 2.0 5.0 0.00 0.00 0.00 37 1012.6
20260901233224 96 78 2.0 7.0 0.00 0.00 0.00 37 1012.7
20260901232724 96 88 2.0 7.0 0.00 0.00 0.00 37 1012.7
20260901232224 96 78 2.0 4.0 0.00 0.00 0.00 37 1012.8
20260901231725 96 90 2.0 6.0 0.00 0.00 0.00 37 1012.7
20260901231225 96 69 2.0 6.0 0.00 0.00 0.00 37 1012.7
20260901230724 97 114 2.0 6.0 0.00 0.00 0.00 36 1012.7
20260901230224 97 86 2.0 6.0 0.00 0.00 0.00 36 1012.8
20260901225724 97 81 2.0 6.0 0.00 0.00 0.00 36 1012.7
20260901225220 97 78 2.0 6.0 0.00 0.00 0.00 36 1012.7
20260901224721 97 78 2.0 4.0 0.00 0.00 0.00 36 1012.7
20260901224220 97 57 1.0 6.0 0.00 0.00 0.00 36 1012.7
20260901223724 97 60 2.0 6.0 0.00 0.00 0.00 35 1012.7
20260901223720 97 80 2.0 6.0 0.00 0.00 0.00 36 1012.8
20260901222722 97 78 2.0 7.0 0.00 0.00 0.00 35 1012.8
20260901222718 97 74 2.0 7.0 0.00 0.00 0.00 35 1012.7
20260901221721 98 102 2.0 6.0 0.00 0.00 0.00 36 1012.7
20260901221717 97 84 2.0 6.0 0.00 0.00 0.00 36 1012.8
20260901220717 98 165 1.0 5.0 0.00 0.00 0.00 36 1012.8
20260901220216 98 103 1.0 3.0 0.00 0.00 0.00 36 1012.7
20260901215719 98 200 1.0 6.0 0.00 0.00 0.00 35 1012.8
20260901215715 98 155 1.0 6.0 0.00 0.00 0.00 36 1012.8
20260901214718 98 84 2.0 7.0 0.00 0.00 0.00 34 1012.9
20260901214714 98 84 2.0 7.0 0.00 0.00 0.00 35 1012.9
20260901214317 98 151 2.0 7.0 0.00 0.00 0.00 35 1012.9
20260901213817 98 160 2.0 7.0 0.00 0.00 0.00 34 1012.9
20260901212711 98 90 1.0 4.0 0.00 0.00 0.00 34 1012.9
20260901212211 98 77 1.0 6.0 0.00 0.00 0.00 34 1013.0
20260901211710 98 171 2.0 6.0 0.00 0.00 0.00 34 1013.2
20260901211315 99 85 2.0 8.0 0.00 0.00 0.00 34 1013.4
20260901211213 99 145 2.0 8.0 0.00 0.00 0.00 34 1013.4
20260901211209 98 100 2.0 5.0 0.00 0.00 0.00 34 1013.3
20260901210313 100 140 2.0 6.0 0.00 0.00 0.00 34 1013.4
20260901205212 100 139 2.0 6.0 0.00 0.00 0.00 33 1013.5
20260901205208 101 184 2.0 6.0 0.00 0.00 0.00 33 1013.4
20260901204813 100 67 2.0 6.0 0.00 0.00 0.00 34 1013.5
20260901203708 100 90 2.0 7.0 0.00 0.00 0.00 33 1013.6
20260901203208 100 81 3.0 8.0 0.00 0.00 0.00 34 1013.7
20260901202708 99 66 2.0 8.0 0.00 0.00 0.00 35 1013.9
20260901202207 100 91 2.0 6.0 0.00 0.00 0.00 34 1013.9
20260901201708 101 84 1.0 4.0 0.00 0.00 0.00 33 1014.0
20260901201208 101 74 1.0 5.0 0.00 0.00 0.00 33 1014.0
20260901200707 101 318 2.0 8.0 0.00 0.00 0.00 32 1013.9
20260901200208 100 210 2.0 8.0 0.00 0.00 0.00 33 1014.1
20260901195711 99 88 2.0 7.0 0.00 0.00 0.00 33 1014.3
20260901195707 99 75 2.0 6.0 0.00 0.00 0.00 33 1014.2
20260901194708 99 98 3.0 8.0 0.00 0.00 0.00 33 1014.4
20260901194208 99 105 3.0 8.0 0.00 0.00 0.00 33 1014.4
20260901193711 99 126 2.0 7.0 0.00 0.00 0.00 33 1014.4
20260901193707 99 217 2.0 6.0 0.00 0.00 0.00 33 1014.5
20260901192704 99 88 2.0 7.0 0.00 0.00 0.00 33 1014.5
20260901192208 98 117 1.0 8.0 0.00 0.00 0.00 33 1014.6
20260901192204 98 190 2.0 8.0 0.00 0.00 0.00 34 1014.5
20260901191206 96 208 2.0 6.0 0.00 0.00 0.00 34 1014.8
20260901191202 98 55 1.0 6.0 0.00 0.00 0.00 34 1014.6
20260901190201 96 82 1.0 4.0 0.00 0.00 0.00 34 1014.8
20260901185704 98 63 2.0 6.0 0.00 0.00 0.00 33 1015.1
20260901185700 97 47 2.0 5.0 0.00 0.00 0.00 34 1014.9
20260901184705 98 69 1.0 5.0 0.00 0.00 0.00 33 1015.2
20260901184700 98 76 2.0 6.0 0.00 0.00 0.00 33 1015.1
20260901183659 98 67 2.0 6.0 0.00 0.00 0.00 32 1015.2
20260901183156 97 104 2.0 6.0 0.00 0.00 0.00 33 1015.4
20260901182656 97 157 2.0 7.0 0.00 0.00 0.00 32 1015.4
20260901182157 97 88 2.0 7.0 0.00 0.00 0.00 32 1015.6
20260901181655 96 86 1.0 4.0 0.00 0.00 0.00 33 1015.6
20260901181154 95 84 1.0 4.0 0.00 0.00 0.00 33 1015.7
20260901180654 94 84 2.0 5.0 0.00 0.00 0.00 33 1015.9
20260901180152 94 59 1.0 5.0 0.00 0.00 0.00 33 1015.9
20260901175652 94 152 0.0 3.0 0.00 0.00 0.00 33 1016.0
20260901175152 94 153 1.0 6.0 0.00 0.00 0.00 33 1016.0
20260901174651 94 153 2.0 10.0 0.00 0.00 0.00 33 1016.1
20260901174148 94 155 2.0 10.0 0.00 0.00 0.00 33 1016.2
20260901173648 95 138 2.0 7.0 0.00 0.00 0.00 32 1016.3
20260901173152 94 171 1.0 6.0 0.00 0.00 0.00 32 1016.3
20260901173148 95 144 2.0 7.0 0.00 0.00 0.00 32 1016.3
20260901172148 94 162 2.0 5.0 0.00 0.00 0.00 32 1016.5
20260901171651 94 103 2.0 7.0 0.00 0.00 0.00 31 1016.5
20260901171647 94 84 2.0 4.0 0.00 0.00 0.00 31 1016.5
20260901170645 95 171 3.0 7.0 0.00 0.00 0.00 31 1016.6
20260901170145 94 140 2.0 7.0 0.00 0.00 0.00 30 1016.6
20260901165650 93 215 2.0 6.0 0.00 0.00 0.00 30 1016.7
20260901165646 93 190 2.0 6.0 0.00 0.00 0.00 30 1016.5
20260901164646 93 219 2.0 6.0 0.00 0.00 0.00 30 1016.7
20260901164145 92 161 1.0 5.0 0.00 0.00 0.00 30 1016.7
20260901163645 93 193 2.0 7.0 0.00 0.00 0.00 29 1016.8
20260901163143 93 175 3.0 7.0 0.00 0.00 0.00 29 1016.8
20260901162644 93 98 1.0 6.0 0.00 0.00 0.00 28 1016.8
20260901162144 93 170 2.0 5.0 0.00 0.00 0.00 27 1016.9
20260901161649 92 168 2.0 7.0 0.00 0.00 0.00 26 1017.0
20260901161645 92 170 2.0 5.0 0.00 0.00 0.00 27 1017.0
20260901161249 91 93 2.0 7.0 0.00 0.00 0.00 26 1017.0
20260901160148 91 170 2.0 8.0 0.00 0.00 0.00 24 1017.0
20260901160144 91 67 2.0 7.0 0.00 0.00 0.00 25 1017.0
20260901155143 91 178 2.0 8.0 0.00 0.00 0.00 24 1017.1
20260901154647 90 160 1.0 6.0 0.00 0.00 0.00 23 1017.1
20260901154643 91 194 2.0 7.0 0.00 0.00 0.00 24 1017.1
20260901153641 90 157 1.0 6.0 0.00 0.00 0.00 22 1017.0
20260901153140 90 163 2.0 6.0 0.00 0.00 0.00 21 1017.0
20260901152642 89 165 1.0 5.0 0.00 0.00 0.00 20 1017.0
20260901152139 89 168 1.0 5.0 0.00 0.00 0.00 19 1017.0
20260901151640 89 180 1.0 5.0 0.00 0.00 0.00 18 1016.9
20260901151143 88 157 2.0 8.0 0.00 0.00 0.00 16 1017.1
20260901151139 88 232 2.0 8.0 0.00 0.00 0.00 18 1017.0
20260901150138 88 215 1.0 4.0 0.00 0.00 0.00 14 1017.1
20260901145643 87 201 2.0 5.0 0.00 0.00 0.00 8 1017.2
20260901145639 87 234 1.0 5.0 0.00 0.00 0.00 12 1017.2
20260901144639 86 154 2.0 5.0 0.00 0.00 0.00 2 1017.1
20260901144139 85 158 1.0 5.0 0.00 0.00 0.00 1 1017.1
20260901143641 84 271 0.0 4.0 0.00 0.00 0.00 1 1017.1
20260901143637 85 173 1.0 5.0 0.00 0.00 0.00 1 1017.1
20260901142637 84 150 1.0 4.0 0.00 0.00 0.00 1 1017.1
20260901142137 83 148 1.0 3.0 0.00 0.00 0.00 1 1017.1
20260901141637 83 291 0.0 2.0 0.00 0.00 0.00 1 1017.1
20260901141137 83 291 0.0 4.0 0.00 0.00 0.00 1 1017.1
20260901140637 82 291 1.0 4.0 0.00 0.00 0.00 1 1017.1
20260901140135 81 205 0.0 3.0 0.00 0.00 0.00 1 1017.2
20260901135636 81 202 0.0 3.0 0.00 0.00 0.00 1 1017.1
20260901135135 80 202 1.0 5.0 0.00 0.00 0.00 1 1017.1
20260901134633 80 182 1.0 5.0 0.00 0.00 0.00 1 1017.2
20260901134133 80 161 1.0 4.0 0.00 0.00 0.00 1 1017.2
20260901133634 79 143 1.0 4.0 0.00 0.00 0.00 1 1017.1
20260901133131 79 160 1.0 3.0 0.00 0.00 0.00 1 1017.1
20260901132631 78 132 1.0 4.0 0.00 0.00 0.00 1 1017.1
20260901132131 78 132 1.0 4.0 0.00 0.00 0.00 1 1017.2
20260901131631 78 159 1.0 3.0 0.00 0.00 0.00 1 1017.1
20260901131131 78 118 1.0 3.0 0.00 0.00 0.00 1 1017.0
20260901130636 77 118 1.0 2.0 0.00 0.00 0.00 1 1016.9
20260901130631 78 118 1.0 2.0 0.00 0.00 0.00 1 1017.0
20260901125630 77 118 1.0 2.0 0.00 0.00 0.00 1 1016.8
20260901125132 77 169 0.0 2.0 0.00 0.00 0.00 1 1016.8
20260901124635 76 169 0.0 0.0 0.00 0.00 0.00 1 1016.7
20260901124631 77 169 0.0 1.0 0.00 0.00 0.00 1 1016.7
20260901124236 76 169 0.0 0.0 0.00 0.00 0.00 1 1016.6
20260901123131 76 169 0.0 0.0 0.00 0.00 0.00 1 1016.5
20260901122631 76 169 0.0 0.0 0.00 0.00 0.00 1 1016.5
20260901122131 76 169 0.0 0.0 0.00 0.00 0.00 1 1016.4
20260901121631 76 169 0.0 0.0 0.00 0.00 0.00 1 1016.4
20260901121135 77 169 0.0 0.0 0.00 0.00 0.00 1 1016.4
20260901121131 76 169 0.0 0.0 0.00 0.00 0.00 1 1016.4
20260901120130 77 169 0.0 0.0 0.00 0.00 0.00 1 1016.3
20260901115631 77 169 0.0 0.0 0.00 0.00 0.00 1 1016.3
20260901115136 77 169 0.0 0.0 0.00 0.00 0.00 1 1016.3
20260901115132 77 169 0.0 0.0 0.00 0.00 0.00 1 1016.3
20260901114132 77 169 0.0 0.0 0.00 0.00 0.00 1 1016.2
20260901113631 77 169 0.0 0.0 0.00 0.00 0.00 1 1016.3
20260901113130 77 169 0.0 0.0 0.00 0.00 0.00 1 1016.3
20260901112630 77 169 0.0 0.0 0.00 0.00 0.00 1 1016.4
20260901112131 78 169 0.0 0.0 0.00 0.00 0.00 1 1016.3
20260901111631 78 169 0.0 0.0 0.00 0.00 0.00 1 1016.3
20260901111133 78 169 0.0 1.0 0.00 0.00 0.00 1 1016.3
20260901110631 78 169 0.0 1.0 0.00 0.00 0.00 1 1016.3
20260901110132 78 169 0.0 1.0 0.00 0.00 0.00 1 1016.2
20260901105630 78 169 0.0 1.0 0.00 0.00 0.00 1 1016.2
20260901105130 78 169 0.0 1.0 0.00 0.00 0.00 1 1016.2
20260901104635 79 169 0.0 1.0 0.00 0.00 0.00 1 1016.0
20260901104631 78 169 0.0 1.0 0.00 0.00 0.00 1 1016.1
20260901103631 79 169 0.0 1.0 0.00 0.00 0.00 1 1016.0
20260901103130 79 169 0.0 0.0 0.00 0.00 0.00 1 1015.9
20260901102630 79 169 0.0 1.0 0.00 0.00 0.00 1 1015.9
20260901102135 79 169 0.0 2.0 0.00 0.00 0.00 1 1015.8
20260901102130 79 169 0.0 1.0 0.00 0.00 0.00 1 1015.9
20260901101132 79 169 0.0 2.0 0.00 0.00 0.00 1 1015.9
20260901100632 79 169 0.0 2.0 0.00 0.00 0.00 1 1015.8
20260901100132 80 169 0.0 2.0 0.00 0.00 0.00 1 1015.8
20260901095632 80 169 1.0 4.0 0.00 0.00 0.00 1 1015.9
20260901095131 80 186 2.0 4.0 0.00 0.00 0.00 1 1016.0
20260901094631 80 183 2.0 4.0 0.00 0.00 0.00 1 1016.0
20260901094131 80 167 1.0 5.0 0.00 0.00 0.00 1 1015.9
20260901093632 80 146 1.0 5.0 0.00 0.00 0.00 1 1015.9
20260901093137 80 180 2.0 4.0 0.00 0.00 0.00 1 1015.9
20260901093133 80 190 1.0 4.0 0.00 0.00 0.00 1 1016.0
20260901092131 80 166 2.0 4.0 0.00 0.00 0.00 1 1016.0
20260901091631 80 182 1.0 4.0 0.00 0.00 0.00 1 1016.0
20260901091134 81 169 1.0 4.0 0.00 0.00 0.00 1 1015.9
20260901091130 81 186 1.0 4.0 0.00 0.00 0.00 1 1015.9
20260901090131 81 149 2.0 4.0 0.00 0.00 0.00 1 1015.9
20260901085630 81 165 2.0 6.0 0.00 0.00 0.00 1 1015.8
20260901085128 81 168 2.0 7.0 0.00 0.00 0.00 1 1015.8
20260901084631 81 167 2.0 7.0 0.00 0.00 0.00 1 1015.7
20260901084627 81 175 2.0 5.0 0.00 0.00 0.00 1 1015.8
20260901083627 82 138 3.0 5.0 0.00 0.00 0.00 1 1015.7
20260901083126 82 189 3.0 6.0 0.00 0.00 0.00 1 1015.7
20260901082626 82 172 3.0 8.0 0.00 0.00 0.00 1 1015.7
20260901082125 82 195 3.0 9.0 0.00 0.00 0.00 1 1015.7
20260901081631 82 159 3.0 7.0 0.00 0.00 0.00 1 1015.7
20260901081626 82 221 3.0 9.0 0.00 0.00 0.00 1 1015.7
20260901080629 82 195 2.0 6.0 0.00 0.00 0.00 1 1015.6
20260901080625 82 211 3.0 7.0 0.00 0.00 0.00 1 1015.6
20260901075623 83 161 3.0 7.0 0.00 0.00 0.00 1 1015.7
20260901075121 83 178 3.0 9.0 0.00 0.00 0.00 1 1015.6
20260901074620 83 186 3.0 9.0 0.00 0.00 0.00 1 1015.6
20260901074118 83 197 3.0 10.0 0.00 0.00 0.00 1 1015.6
20260901073618 83 153 3.0 10.0 0.00 0.00 0.00 1 1015.6
20260901073118 83 181 3.0 9.0 0.00 0.00 0.00 1 1015.6
20260901072618 83 156 3.0 9.0 0.00 0.00 0.00 1 1015.7
20260901072118 83 165 3.0 8.0 0.00 0.00 0.00 1 1015.6
20260901071620 83 143 3.0 9.0 0.00 0.00 0.00 1 1015.6
20260901071616 83 154 3.0 8.0 0.00 0.00 0.00 1 1015.6
20260901070616 83 142 3.0 9.0 0.00 0.00 0.00 1 1015.6
20260901070116 83 126 3.0 8.0 0.00 0.00 0.00 1 1015.6
20260901065614 83 163 3.0 9.0 0.00 0.00 0.00 1 1015.6
20260901065114 83 131 3.0 9.0 0.00 0.00 0.00 1 1015.6
20260901064614 83 131 3.0 6.0 0.00 0.00 0.00 1 1015.6
20260901064114 84 187 3.0 8.0 0.00 0.00 0.00 2 1015.6
20260901063616 84 198 3.0 7.0 0.00 0.00 0.00 6 1015.5
20260901063612 84 164 3.0 8.0 0.00 0.00 0.00 4 1015.5
20260901062612 84 159 3.0 7.0 0.00 0.00 0.00 8 1015.5
20260901062112 84 153 3.0 6.0 0.00 0.00 0.00 9 1015.5
20260901061616 84 163 2.0 7.0 0.00 0.00 0.00 15 1015.4
20260901061612 84 188 2.0 7.0 0.00 0.00 0.00 12 1015.4
20260901060616 84 136 2.0 6.0 0.00 0.00 0.00 22 1015.4
20260901060612 84 168 2.0 6.0 0.00 0.00 0.00 18 1015.4
20260901055612 84 165 2.0 7.0 0.00 0.00 0.00 25 1015.4
20260901055113 84 178 2.0 7.0 0.00 0.00 0.00 27 1015.4
20260901054613 84 165 1.0 6.0 0.00 0.00 0.00 29 1015.3
20260901054110 85 167 1.0 5.0 0.00 0.00 0.00 31 1015.3
20260901053610 85 173 1.0 4.0 0.00 0.00 0.00 33 1015.2
20260901053109 85 142 1.0 5.0 0.00 0.00 0.00 34 1015.2
20260901052612 85 132 2.0 7.0 0.00 0.00 0.00 37 1015.1
20260901052608 85 159 2.0 5.0 0.00 0.00 0.00 35 1015.1
20260901051610 85 175 3.0 7.0 0.00 0.00 0.00 38 1015.1
20260901051106 85 173 3.0 6.0 0.00 0.00 0.00 40 1015.0
20260901050610 86 159 2.0 9.0 0.00 0.00 0.00 43 1014.8
20260901050606 86 137 3.0 9.0 0.00 0.00 0.00 41 1014.9
20260901045604 86 181 2.0 7.0 0.00 0.00 0.00 43 1014.9
20260901045108 86 135 3.0 10.0 0.00 0.00 0.00 43 1014.8
20260901045104 86 137 3.0 10.0 0.00 0.00 0.00 43 1014.8
20260901044107 86 163 3.0 10.0 0.00 0.00 0.00 43 1014.8
20260901044103 86 188 3.0 9.0 0.00 0.00 0.00 43 1014.8
20260901043107 85 167 1.0 6.0 0.00 0.00 0.00 43 1014.7
20260901043103 85 152 2.0 10.0 0.00 0.00 0.00 44 1014.8
20260901042101 85 165 1.0 3.0 0.00 0.00 0.00 42 1014.6
20260901041601 85 178 1.0 4.0 0.00 0.00 0.00 42 1014.6
20260901041101 85 160 1.0 4.0 0.00 0.00 0.00 42 1014.6
20260901040604 85 174 1.0 4.0 0.00 0.00 0.00 42 1014.5
20260901040600 85 182 1.0 3.0 0.00 0.00 0.00 42 1014.5
20260901035559 85 170 1.0 4.0 0.00 0.00 0.00 42 1014.5
20260901035059 85 151 1.0 3.0 0.00 0.00 0.00 42 1014.5
20260901034559 85 171 1.0 3.0 0.00 0.00 0.00 42 1014.5
20260901034057 85 187 1.0 4.0 0.00 0.00 0.00 42 1014.5
20260901033558 85 175 1.0 4.0 0.00 0.00 0.00 42 1014.4
20260901033055 86 192 1.0 3.0 0.00 0.00 0.00 42 1014.5
20260901032555 86 171 1.0 4.0 0.00 0.00 0.00 42 1014.4
20260901032053 86 164 1.0 4.0 0.00 0.00 0.00 42 1014.3
20260901031551 86 187 1.0 2.0 0.00 0.00 0.00 42 1014.3
20260901031052 86 153 1.0 2.0 0.00 0.00 0.00 42 1014.3
20260901030551 86 170 0.0 2.0 0.00 0.00 0.00 42 1014.3
20260901030053 87 157 1.0 3.0 0.00 0.00 0.00 41 1014.1
20260901030049 87 154 1.0 2.0 0.00 0.00 0.00 41 1014.2
20260901025047 87 167 1.0 3.0 0.00 0.00 0.00 41 1014.1
20260901024548 87 174 1.0 3.0 0.00 0.00 0.00 41 1014.1